RH
26 26 27 26 25 24 24 24 24 23 24 24 25 26 26 27 29 30 32 33 34 36
27 27 27 28 27 27 26 25 25 26 26 26 25 26 28 30 33 35 38 40 42 45
28 29 30 30 29 27 28 28 28 27 26 28 30 31 33 37 42 45 49 52 54 56
32 32 31 29 30 31 30 28 28 31 35 38 41 44 48 50 51 53 56 58 59 59
31 30 30 30 31 32 36 41 45 47 48 48 48 47 47 48 50 53 55 57 56 55
32 35 38 40 43 47 49 50 50 49 49 49 50 51 51 53 53 54 54 52 50 48
43 44 45 48 50 51 52 53 54 55 56 57 58 58 58 57 55 53 51 50 47 44
48 51 52 54 55 55 56 58 61 62 61 59 57 55 55 54 52 51 49 45 42 39
52 54 54 55 57 59 60 60 61 60 58 56 54 51 50 48 48 46 45 43 41 38
55 57 58 60 60 61 61 60 58 56 53 52 49 46 44 44 43 43 44 46 47 45
61 62 62 61 60 58 57 55 56 55 53 52 52 51 50 50 50 50 48 48 47 44
67 62 58 57 57 56 54 51 49 46 43 37 35 33 33 34 34 33 32 32 33 34
62 59 58 56 49 46 41 36 32 30 32 32 32 32 32 31 29 29 29 28 28 29
57 52 47 41 35 32 29 28 30 31 31 31 30 29 30 31 29 28 26 24 26 27